Wenatchee, WA

7:47 AM PDT on March 29, 2017 (GMT -0700)
Pangborn Memorial

Weather History for KEAT - April, 2014

Change the Weather History Date:

Wednesday, April 30, 2014

  Actual Average Record
Temperature  
Mean Temperature 52 °F 55 °F  
Max Temperature 71 °F 66 °F 88 °F (1998)
Min Temperature 32 °F 44 °F 32 °F (1972)
Degree Days  
Heating Degree Days 13 10  
Month to date heating degree days 586 403  
Since 1 July heating degree days 6728 5516  
Cooling Degree Days 0 0  
Month to date cooling degree days 0 36  
Year to date cooling degree days 0 38  
Growing Degree Days 12 (Base 50)    
Moisture  
Dew Point 25 °F    
Average Humidity 0    
Maximum Humidity 0    
Minimum Humidity 0    
Precipitation  
Precipitation 0.00 in 0.01 in 0.23 in (1987)
Month to date precipitation 1.35 0.46  
Year to date precipitation 6.57 2.97  
Snow  
Snow 0.00 in - - ()
Month to date snowfall T  
Snow Depth 0.00 in    
Sea Level Pressure  
Sea Level Pressure 30.42 in    
Wind  
Wind Speed 4 mph (WSW)    
Max Wind Speed 10 mph    
Max Gust Speed 0 mph    
Visibility 10 miles    
Events      
T = Trace of Precipitation, MM = Missing Value Source: NWS Daily Summary

Daily Weather History Graph

Daily Weather History Graph

Search for Another Location

Airport or City:

Trip Planner

Search our weather history database for the weather conditions in past years. The results will help you decide how hot, cold, wet, or windy it might be!

Date:

Astronomy

Apr. 30, 2014 Rise Set
Actual Time 5:45 AM PDT 8:11 PM PDT
Civil Twilight 5:11 AM PDT 8:45 PM PDT
Nautical Twilight 4:28 AM PDT 9:28 PM PDT
Astronomical Twilight 3:40 AM PDT 10:17 PM PDT
Moon 6:48 AM PDT (4/30) 9:58 PM PDT (4/30)
Length of Visible Light 15h 33m
Length of Day
14h 25m
Waxing Crescent, 3% of the Moon is Illuminated
Apr 30
Waxing Crescent
May 6
First Quarter
May 14
Full
May 21
Last Quarter
May 28
New

Hourly Weather History & Observations

Time (PDT) Temp. Windchill Dew Point Humidity Pressure Visibility Wind Dir Wind Speed Gust Speed Precip Events Conditions
12:55 AM 50.0 °F - 27.0 °F 41% 30.53 in 10.0 mi Calm Calm - N/A   Clear
1:55 AM 51.1 °F - 26.1 °F 38% 30.53 in 10.0 mi NW 3.5 mph - N/A   Clear
2:55 AM 48.0 °F - 28.0 °F 46% 30.53 in 10.0 mi West 5.8 mph - N/A   Clear
4:55 AM 46.0 °F 41.0 °F 28.0 °F 50% 30.53 in 10.0 mi West 10.4 mph - N/A   Clear
5:55 AM 46.0 °F 42.5 °F 28.0 °F 50% 30.54 in 10.0 mi WNW 6.9 mph - N/A   Clear
6:55 AM 46.9 °F - 28.9 °F 50% 30.55 in 10.0 mi WNW 9.2 mph - N/A   Clear
7:55 AM 50.0 °F - 28.9 °F 44% 30.55 in 10.0 mi West 5.8 mph - N/A   Clear
8:55 AM 54.0 °F - 30.0 °F 40% 30.53 in 10.0 mi West 5.8 mph - N/A   Clear
9:55 AM 57.9 °F - 28.9 °F 33% 30.51 in 10.0 mi Calm Calm - N/A   Clear
10:55 AM 63.0 °F - 30.0 °F 29% 30.50 in 10.0 mi Variable 3.5 mph - N/A   Clear
11:55 AM 68.0 °F - 28.0 °F 22% 30.47 in 10.0 mi South 5.8 mph - N/A   Clear
12:55 PM 71.1 °F - 23.0 °F 16% 30.44 in 10.0 mi Variable 6.9 mph - N/A   Clear
1:55 PM 73.9 °F - 24.1 °F 16% 30.41 in 10.0 mi ESE 5.8 mph - N/A   Clear
2:55 PM 77.0 °F - 19.0 °F 11% 30.38 in 10.0 mi SSE 8.1 mph - N/A   Clear
3:55 PM 75.9 °F - 21.0 °F 13% 30.35 in 10.0 mi SE 6.9 mph - N/A   Clear
4:55 PM 77.0 °F - 17.1 °F 10% 30.32 in 10.0 mi SSE 6.9 mph - N/A   Clear
5:55 PM 77.0 °F - 16.0 °F 10% 30.30 in 10.0 mi SSE 6.9 mph - N/A   Clear
7:55 PM 72.0 °F - 21.0 °F 15% 30.27 in 10.0 mi Calm Calm - N/A   Clear
8:55 PM 69.1 °F - 23.0 °F 18% 30.28 in 10.0 mi Calm Calm - N/A   Clear
9:55 PM 66.0 °F - 26.1 °F 22% 30.28 in 10.0 mi Calm Calm - N/A   Clear
10:55 PM 62.1 °F - 27.0 °F 26% 30.27 in 10.0 mi NW 3.5 mph - N/A   Clear
11:55 PM 55.9 °F - 28.0 °F 34% 30.27 in 10.0 mi NNW 3.5 mph - N/A   Clear